This is the latest recevied weather packets stored in our database for station/object AE5HO. If no packets are shown the sender has not sent any weather packets the latest 1 day(s).
| Time | Temp. | Humidity | Pressure | Rain* | Wind** | Luminosity | Snow |
|---|---|---|---|---|---|---|---|
| 1777995170 | 25° C | 79% | 1005 hPa | 0 mm | 1.34 m/s, 273° | 201 W/m² | - |
| 1777994867 | 25° C | 79% | 1004.9 hPa | 0 mm | 0.89 m/s, 270° | 168 W/m² | - |
| 1777994564 | 25° C | 79% | 1004.9 hPa | 0 mm | 1.34 m/s, 262° | 132 W/m² | - |
| 1777994264 | 25° C | 79% | 1005 hPa | 0 mm | 0.89 m/s, 246° | 153 W/m² | - |
| 1777993961 | 25° C | 80% | 1004.8 hPa | 0 mm | 0.45 m/s, 263° | 191 W/m² | - |
| 1777993658 | 25° C | 80% | 1004.9 hPa | 0 mm | 1.79 m/s, 198° | 197 W/m² | - |
| 1777993356 | 24.44° C | 81% | 1005.1 hPa | 0 mm | 0.89 m/s, 240° | 172 W/m² | - |
| 1777993056 | 23.89° C | 81% | 1005 hPa | 0 mm | 0 m/s | 139 W/m² | - |
| 1777992754 | 23.89° C | 82% | 1004.9 hPa | 0 mm | 1.79 m/s, 267° | 144 W/m² | - |
| 1777992451 | 23.89° C | 82% | 1004.9 hPa | 0 mm | 0 m/s | 125 W/m² | - |
| 1777992150 | 23.89° C | 83% | 1005.1 hPa | 0 mm | 0 m/s | 130 W/m² | - |
| 1777991846 | 23.89° C | 83% | 1005.4 hPa | 0 mm | 0 m/s | 109 W/m² | - |
| 1777991544 | 23.89° C | 83% | 1005.1 hPa | 0 mm | 0.89 m/s, 240° | 99 W/m² | - |
| 1777991240 | 23.33° C | 84% | 1005.1 hPa | 0 mm | 1.79 m/s, 226° | 141 W/m² | - |
| 1777990938 | 23.33° C | 84% | 1005 hPa | 0 mm | 0 m/s | 133 W/m² | - |
| 1777990636 | 23.33° C | 84% | 1005 hPa | 0 mm | 0.45 m/s, 180° | 105 W/m² | - |
| 1777990333 | 22.78° C | 85% | 1004.9 hPa | 0 mm | 2.24 m/s, 209° | 98 W/m² | - |
| 1777990028 | 22.78° C | 85% | 1004.7 hPa | 0 mm | 1.34 m/s, 320° | 105 W/m² | - |
| 1777989726 | 22.78° C | 85% | 1004.6 hPa | 0 mm | 1.34 m/s, 236° | 103 W/m² | - |
| 1777989422 | 22.78° C | 86% | 1004.6 hPa | 0 mm | 1.34 m/s, 270° | 100 W/m² | - |
| 1777989118 | 22.22° C | 86% | 1004.5 hPa | 0 mm | 2.24 m/s, 266° | 77 W/m² | - |
| 1777988814 | 22.22° C | 87% | 1004.9 hPa | 0 mm | 0.45 m/s, 74° | 67 W/m² | - |
| 1777988512 | 22.22° C | 87% | 1005 hPa | 0 mm | 0.45 m/s, 264° | 57 W/m² | - |
| 1777988209 | 22.22° C | 87% | 1004.9 hPa | 0 mm | 0.89 m/s, 210° | 44 W/m² | - |
| 1777987905 | 22.22° C | 87% | 1004.9 hPa | 0 mm | 1.34 m/s, 209° | 45 W/m² | - |
* Rain latest hour (hover to see other rain measurements)
** Current wind speed in m/s (hover to see current wind gust speed)